Location: Invercargill
(46.4000°S, 168.3500°E)
Time: 00:36:04
(UTC+13:00)

Cosmos 405 Rocket - Pass Details

Date: 04 October 2021
Orbit: 488 x 552 km, 81.3° (Epoch: 17 October)

Event Time Altitude Azimuth Distance (km) Brightness Sun altitude
Exits shadow 23:43:43 13° 171° (S) 1,688 5.7 -33.4°
Drops below altitude 10° 23:44:10 10° 170° (S) 1,873 6.0 -33.4°
Sets 23:46:22 0° 169° (S) 2,775 7.0 -33.7°
